GAOFEN-12 04

Last updated on Fri Oct 04 2024 00:02:26 GMT+0000 (Coordinated Universal Time)

1 57654U 23123A 24277.56908373 .00007428 00000+0 96948-3 0 9990 2 57654 97.9055 193.5062 0002508 94.2447 265.9052 14.80798046 60669
UTC large
Height (km)
Speed (km/s)
/
Latitude / Longitude
Inclination (degrees)
Orbital Period (minutes)
Azimuth
Elevation
Range (km)
Doppler Factor

Next 0 passes for location: London (51.5072 / 0.1276)

Sorry there are no passes over London.